User: anonymous   Login
Location: Unspecified
(0.0000°N, 0.0000°E)
Time: 10:29:47
(UTC+00:00)
Language:

Tiros 1 despin weight - Orbit

View from above orbital plane
View from above orbital plane
View from above satellite
View from above satellite

Ground track
Ground track

The orbit data is extracted from the following two-line orbital elements,

1 00115U 60002D   14350.85065987  .00003149  00000-0  42207-3 0  5346
2 00115 048.1640 208.6048 0035259 039.7105 026.9806 14.81363281914719
Epoch (UTC): 16 December 2014 20:24:57
Eccentricity: 0.0035259
inclination: 48.1640°
perigee height: 600 km
apogee height: 650 km
right ascension of ascending node: 208.6048°
argument of perigee: 39.7105°
revolutions per day: 14.81363281
mean anomaly at epoch: 26.9806°
orbit number at epoch: 91471

The dashed part of the orbit path shows where the satellite is in the earth's shadow,  

DLR